Location: Altenst�hlen
(53.5567°N, 8.9425°E)
Time: 07:48:04
(UTC+00:00)

Cosmos 1300 - Pass Details

Date: 23 October 2019
Orbit: 511 x 515 km, 82.5° (Epoch: 17 November)

Event Time Altitude Azimuth Distance (km) Brightness Sun altitude
Rises 17:17:41 0° 161° (SSE) 2,623 6.1 -10.6°
Reaches altitude 10° 17:20:00 10° 149° (SSE) 1,741 5.1 -10.9°
Maximum altitude 17:23:16 28° 90° (E) 1,003 3.6 -11.4°
Drops below altitude 10° 17:26:34 10° 31° (NNE) 1,752 5.1 -11.9°
Sets 17:28:54 0° 20° (NNE) 2,644 6.1 -12.2°
